C/2020 K2 ( PanSTARRS )

Japanese version
Home page
Updated on July 8, 2020

---------------------------------------------------------------------

* Profile

Discovery Date May 21, 2020
Magnitude 20.5 mag
Discoverer Pan-STARRS 1 telescope (Haleakala)

* Pictures

* Orbital Elements

Epoch 2020 Aug. 19.0 TT = JDT 2459080.5
T 2020 Aug. 5.71198 TT                                  Rudenko
q   8.8763731            (2000.0)            P               Q
z  +0.0000567      Peri.   67.32336     +0.10546931     -0.29667577
 +/-0.0001814      Node   288.32477     -0.70753111     +0.64829830
e   0.9994969      Incl.   91.02982     +0.69876745     +0.70120810
From 59 observations 2020 May 21-June 27, mean residual 0".4.

* Magnitudes Graph

        m1 = 6.0 + 5 log d + 10.0 log r

---------------------------------------------------------------------

The orbital elements are published on M.P.E.C. 2020-N08.
The magnitudes graphs are made with Comet for Windows.

---------------------------------------------------------------------

Copyright(C) Seiichi Yoshida (comet@aerith.net). All rights reserved.